SWA2848 KLAX-PHNL

Flight info

Callsign SWA2848
Flight time N/A
Altitude 38000
Route SUMMR2 DINTY DUETS/N0453F400 3335N12855W DADIE R576 DENNS MAGGI3
Aircraft B738/M-SADE2E3GIJ4RWZ/LB1D1

Departure

Time 2026-04-23 12:27
Airport Los Angeles International Airport (KLAX)

Arrival

Time N/A
Airport Daniel K. Inouye International Airport (PHNL)
Time Latitude Longitude Altitude Speed Heading
2026-04-23 12:13 33.94791 -118.40125 94 ft 0 kts 185°
2026-04-23 12:20 33.94797 -118.40124 95 ft 2 kts 185°
2026-04-23 12:21 33.94813 -118.40122 94 ft 2 kts 185°
2026-04-23 12:21 33.94829 -118.40120 95 ft 2 kts 185°
2026-04-23 12:21 33.94845 -118.40118 95 ft 2 kts 185°
2026-04-23 12:21 33.94862 -118.40117 96 ft 2 kts 185°
2026-04-23 12:22 33.94863 -118.40116 96 ft 0 kts 185°
2026-04-23 12:24 33.94862 -118.40116 96 ft 0 kts 184°
2026-04-23 12:24 33.94849 -118.40097 95 ft 5 kts 110°
2026-04-23 12:24 33.94861 -118.40058 97 ft 5 kts 31°
2026-04-23 12:24 33.94899 -118.40057 99 ft 7 kts 17°
2026-04-23 12:25 33.94923 -118.40000 98 ft 8 kts 81°
2026-04-23 12:25 33.94943 -118.39936 100 ft 8 kts 49°
2026-04-23 12:25 33.94995 -118.39914 105 ft 8 kts
2026-04-23 12:25 33.95042 -118.39931 107 ft 4 kts 310°
2026-04-23 12:26 33.95042 -118.39956 108 ft 0 kts 262°
2026-04-23 12:27 33.95037 -118.40002 108 ft 25 kts 261°
2026-04-23 12:27 33.94978 -118.40574 107 ft 114 kts 263°
2026-04-23 12:27 33.94846 -118.41786 393 ft 162 kts 261°
2026-04-23 12:27 33.94669 -118.43215 1250 ft 182 kts 263°
2026-04-23 12:28 33.94514 -118.44785 2267 ft 193 kts 265°
2026-04-23 12:28 33.94352 -118.46545 2665 ft 227 kts 267°
2026-04-23 12:28 33.94269 -118.48495 3333 ft 237 kts 270°
2026-04-23 12:28 33.94220 -118.50481 4072 ft 246 kts 271°
2026-04-23 12:29 33.94116 -118.52622 4660 ft 264 kts 266°
2026-04-23 12:29 33.93931 -118.54946 5002 ft 298 kts 266°
2026-04-23 12:29 33.93711 -118.57609 5027 ft 338 kts 265°
2026-04-23 12:29 33.93471 -118.60584 5032 ft 373 kts 265°
2026-04-23 12:30 33.93215 -118.63783 5153 ft 396 kts 265°
2026-04-23 12:30 33.92954 -118.67092 5913 ft 400 kts 266°
2026-04-23 12:30 33.92692 -118.70453 6427 ft 400 kts 266°
2026-04-23 12:30 33.92437 -118.73732 7192 ft 384 kts 266°
2026-04-23 12:31 33.92194 -118.76853 8246 ft 364 kts 266°
2026-04-23 12:31 33.91961 -118.79813 9320 ft 347 kts 266°
2026-04-23 12:31 33.91737 -118.82655 10484 ft 333 kts 266°
2026-04-23 12:31 33.91646 -118.85393 11652 ft 326 kts 272°
2026-04-23 12:32 33.91739 -118.88187 11967 ft 342 kts 274°
2026-04-23 12:32 33.91887 -118.91141 11998 ft 365 kts 274°
2026-04-23 12:32 33.92016 -118.94245 12009 ft 385 kts 273°
2026-04-23 12:32 33.92124 -118.97535 12010 ft 401 kts 273°
2026-04-23 12:33 33.92388 -119.00948 11986 ft 415 kts 283°
2026-04-23 12:33 33.93235 -119.03772 12005 ft 0 kts 296°
2026-04-23 12:34 33.94791 -118.40125 97 ft 0 kts 185°